Weather in Krylovo

Russia / Perm Krai     57°10′05″N   55°32′48″E
temp.,
°C
wind,
m/s
gust,
m/s
humid.,
%
clouds,
%
prec.,
mm/h
press.,
hPa
HPBL,
m
2 march, tue
tue223:00−18ssw239778 0.0 101627
02:00−18s489833 0.0 1013152
05:00−17s6119366 0.0 1010345
08:00−17s71495100 0.2 1006411
11:00−15s71494100 1.3 1004525
14:00−11s71392100 1.3 1001627
17:00−9ssw71293100 1.9 999646
20:00−8s61295100 0.9 997533
3 march, wed
wed323:00−7s51195100 2.8 995471
02:00−5sse2697100 2.2 993239
05:00−6wnw2397100 2.4 99457
08:00−6wnw239796 0.9 99491
11:00−5w239495 0.9 996232
14:00−2w349396 0.1 996455
17:00−2wsw369398 0.3 997474
20:00−4wsw3697100 0.4 997222
4 march, thu
thu423:00−5w3697100 0.6 998134
02:00−7nw5995100 0.8 998478
05:00−11w369597 1.0 1000126
08:00−15wsw239752 0.0 100151
11:00−10sw469475 0.1 1001325
14:00−6wsw5891100 0.1 1001610
17:00−5sw5989100 0.2 1000669
20:00−7ssw51293100 0.1 999492
5 march, fri
fri523:00−6ssw71492100 0.3 996714
02:00−5s81694100 0.8 991830
05:00−1sw71595100 2.4 9881088
08:00−2wsw8158899 0.6 9891032
11:00−5wsw9158465 0.8 9921201
14:00−5w91486100 0.1 9971154
17:00−6w61086100 0.3 1001847
20:00−8w4991100 0.1 1004541
6 march, sat
sat623:00−13w3395100 0.1 100758
02:00−17w229771 0.0 100921
05:00−20wsw1210074 0.0 101120
08:00−19s1298100 0.0 101120
11:00−14ene1191100 0.0 1009172
14:00−9ene3584100 0.0 1005473
17:00−10ne4794100 0.8 1001422
20:00−11n5995100 1.5 999374